Flag for U.S.A. Weather past 2 weeks in Fort Collins, Colorado, U.S.A.

Now
72 °F

Sunny.


Feels Like: 74 °F
Forecast: 44 / 64 °F
Wind: 9 mph from West

Location: Fort Collins-Loveland Municipal Airport

Current Time: Mar 28, 2015 at 7:13:34 PM

Latest Report: Mar 28, 2015 at 6:55 PM


Visibility: 10 mi

Pressure: 29.91 "Hg

Humidity: 16%

Dew point: 23 °F

Location of Fort CollinsLocation

Historic Weather in Fort Collins — Graph

°F

Fort Collins temperature yesterday

Maximum temperature yesterday: 72 °F (at 3:55 PM)
Minimum temperature yesterday: 37 °F (at 6:35 AM)
Average temperature yesterday: 55 °F

Past Weeks' High & Low Weather Summary

 TemperatureHumidityPressure
High81 °F (Mar 15, 3:55 PM)100% (Mar 26, 4:35 AM)30.43 "Hg (Mar 26, 4:35 AM)
Low27 °F (Mar 26, 5:55 AM)11% (Mar 15, 3:55 PM)29.76 "Hg (Mar 23, 4:55 PM)
Average50 °F48%30.11 "Hg
* Reported Mar 13 5:15 PM — Mar 28 5:55 PM, Fort Collins, Weather by CustomWeather, © 2015

Note: Actual official high and low records may vary slightly from our data, if they occured in-between our weather recording intervals... More about our weather records

Advertising

Fort Collins weather history for previous 24 hours

 ConditionsComfort  
Time TempWeatherWind HumidityBarometerVisibility
5:55 PM
Sat, Mar 28
75 °FSunny.15 mph15%29.90 "Hg10 mi
5:35 PM75 °FSunny.9 mph15%29.90 "Hg10 mi
5:15 PM75 °FSunny.15 mph14%29.90 "Hg10 mi
4:55 PM77 °FSunny.15 mph13%29.90 "Hg10 mi
4:35 PM79 °FSunny.14 mph13%29.90 "Hg10 mi
4:15 PM81 °FSunny.5 mph13%29.90 "Hg10 mi
3:55 PM79 °FSunny.5 mph13%29.90 "Hg10 mi
3:35 PM79 °FSunny.5 mph15%29.91 "Hg10 mi
2:55 PM79 °FSunny.6 mph15%29.93 "Hg10 mi
2:35 PM79 °FSunny.No wind13%29.95 "Hg10 mi
2:15 PM77 °FSunny.3 mph15%29.96 "Hg10 mi
1:55 PM77 °FSunny.3 mph17%29.97 "Hg10 mi
1:35 PM75 °FSunny.3 mph16%29.98 "Hg10 mi
1:15 PM75 °FSunny.5 mph16%29.99 "Hg10 mi
12:55 PM75 °FSunny.5 mph16%30.00 "Hg10 mi
12:35 PM75 °FSunny.12 mph18%30.00 "Hg10 mi
12:15 PM75 °FSunny.15 mph19%30.01 "Hg10 mi
11:55 AM72 °FSunny.6 mph27%30.02 "Hg10 mi
11:35 AM70 °FSunny.9 mph29%30.04 "Hg10 mi
11:15 AM68 °FSunny.10 mph33%30.04 "Hg10 mi
10:55 AM66 °FSunny.8 mph32%30.06 "Hg10 mi
10:35 AM64 °FSunny.8 mph32%30.06 "Hg10 mi
10:15 AM63 °FSunny.8 mph34%30.06 "Hg10 mi
9:55 AM61 °FSunny.8 mph39%30.07 "Hg10 mi
9:35 AM57 °FSunny.5 mph39%30.07 "Hg10 mi
9:15 AM55 °FSunny.5 mph44%30.07 "Hg10 mi
8:55 AM54 °FSunny.No wind47%30.07 "Hg10 mi
8:35 AM52 °FSunny.No wind47%30.07 "Hg10 mi
8:15 AM46 °FSunny.No wind62%30.08 "Hg10 mi
7:55 AM45 °FSunny.3 mph57%30.09 "Hg10 mi
7:35 AM45 °FClear.No wind49%30.08 "Hg10 mi
7:15 AM43 °FClear.3 mph49%30.08 "Hg10 mi
6:55 AM45 °FClear.7 mph49%30.08 "Hg10 mi
6:35 AM41 °FClear.3 mph53%30.08 "Hg10 mi
6:15 AM45 °FClear.5 mph49%30.08 "Hg10 mi
5:55 AM46 °FClear.No wind50%30.07 "Hg10 mi
5:35 AM45 °FClear.No wind49%30.07 "Hg10 mi
5:15 AM45 °FClear.6 mph53%30.07 "Hg10 mi
4:55 AM45 °FClear.5 mph53%30.07 "Hg10 mi
4:35 AM45 °FClear.No wind49%30.07 "Hg10 mi
4:15 AM45 °FClear.No wind53%30.07 "Hg10 mi
3:55 AM45 °FClear.No wind49%30.07 "Hg10 mi
3:35 AM48 °FClear.5 mph46%30.06 "Hg10 mi
3:15 AM48 °FClear.5 mph43%30.07 "Hg10 mi
2:55 AM48 °FClear.6 mph43%30.07 "Hg10 mi
2:35 AM52 °FClear.3 mph41%30.07 "Hg10 mi
2:15 AM52 °FClear.No wind41%30.08 "Hg10 mi
1:55 AM52 °FClear.No wind41%30.08 "Hg10 mi
1:35 AM55 °FClear.6 mph38%30.09 "Hg10 mi
1:15 AM54 °FClear.6 mph41%30.09 "Hg10 mi
12:55 AM54 °FClear.7 mph38%30.10 "Hg10 mi
12:35 AM55 °FClear.3 mph36%30.10 "Hg10 mi
12:15 AM54 °FClear.No wind38%30.11 "Hg10 mi
11:55 PM
Fri, Mar 27
54 °FClear.No wind38%30.11 "Hg10 mi
11:35 PM55 °FPassing clouds.5 mph36%30.11 "Hg10 mi
11:15 PM57 °FPassing clouds.7 mph33%30.12 "Hg10 mi
10:55 PM55 °FClear.7 mph36%30.12 "Hg10 mi
10:35 PM55 °FClear.10 mph36%30.12 "Hg10 mi
9:35 PM59 °FClear.6 mph34%30.12 "Hg10 mi
9:15 PM57 °FClear.8 mph36%30.12 "Hg10 mi
8:55 PM57 °FPassing clouds.7 mph33%30.12 "Hg10 mi
8:35 PM59 °FPassing clouds.9 mph31%30.12 "Hg10 mi
8:15 PM61 °FSunny.9 mph31%30.11 "Hg10 mi
7:55 PM63 °FPassing clouds.8 mph27%30.10 "Hg10 mi
7:35 PM64 °FScattered clouds.10 mph26%30.09 "Hg10 mi
7:15 PM66 °FScattered clouds.9 mph26%30.09 "Hg10 mi
Weather by CustomWeather, © 2015

See weather overviewHow to use our weather pages